STARLINK-1983, 47630

Orbit data source: Space-Track

STARLINK-1983, 47630 is a payload satellite owned by SpaceX/Seattle (US) in LEO that was launched on Tue, 16 Feb 2021 UTC via an FALCON 9 launch vehicle from the Air Force Eastern Test Range (AFETR). Payload-class satellites include a variety of spacecraft equipped with specific instruments for various scientific and technological missions. These include communications satellites like Starlink; space stations such as the ISS; scientific satellites like the Hubble; Earth observation satellites from companies like Planet Labs, Umbra, and HawkEye 360; GPS; miniature CubeSats for education and research; and military/defense satellites.

Loading next visibility...
Identifier
47630, 2021-012L
Orbit
LEO
Country
Flag of USUS
Related business
Manufacturer
SpaceX/Seattle
Mission
Operational Commercial Communications
Bus & Motor
STARLINK, Unknown motor
Mass
260 kg wet, ~248 kg dry
Launch date (UTC)
2021-02-16 (5 years ago)
Launch vehicle
FALCON 9
Launch site
Air Force Eastern Test Range (AFETR)
Object type
Payload
Rocket body
Debris
Shape & HBR
Box + 1 Pan, 10.1 m
Radar Cross Section
13.562 m², Large (>1 m²)

Expand to show TLE details & history
Last TLE update: 2 days ago

TLE from 2 days ago
0 STARLINK-1983
1 47630U 21012L   26171.33559031  .00000978  00000-0  43272-4 0  9998
2 47630  53.1584 292.0420 0001109  70.0331 290.0790 15.31705248296002
Epoch: 2026-06-20T08:03Z
TLE epoch observation values (Epoch: 2026-06-20T08:03:15.002Z)
Latitude
-0.00002°
Longitude
-97.32221°
Altitude
471.364 km
Speed
7.632 km/s
True Right ascension
19h 28m 10s
True Declination
0° 00' 00"
Sunlit
Object was in full shadow at epoch
Visualization orbit readout
Latitude
Unknown
Longitude
Unknown
Altitude
Unknown
Speed
Unknown
Apparent Right ascension
Unknown
Apparent Declination
Unknown
Sunlit
N/A
Visualization observer readout
Local Sidereal Time
21:51:59
Azimuth
Unknown
Elevation
Unknown
Doppler factor
Unknown
Orbital elements
Apogee altitude
471.741 km
Perigee altitude
470.222 km
Semi-major axis
6,849.118 km
Eccentricity
0.00011
Inclination
53.1584°
RAAN
292.042°
Arg. of periapsis
70.0331°
True anomaly
290.06706°
Mean anomaly
290.079°
Eccentric anomaly
290.07303°
Mean motion
3.82905 °/min
Orbital period
94.02 mins
BSTAR
0.000043272
Loading maneuver chart data...
Computing Atmospheric mass density...

Documentation

Showing up to 5 results
|